sat.trackr.live / text

‹ back to catalog

EXPRESS AMU-3

NORAD 50002 · 2021-123B

PAYLOAD ACTIVE UNKNOWN

§ Identity

Operator
Country
CIS
Launch date
2021-12-13
Launch site
TYMSC
Launch vehicle
Mass (kg)
RCS (m²)

Purposes: comms

External: N2YO · Heavens-Above · Gunter

§ Orbital elements

Epoch: 2026-09-19T17:13:29.496000Z

Period
1,436.09 min
Inclination
0.0306°
Eccentricity
0.0000337
Mean motion
1.00272209 rev/d
Perigee alt
35,785.1 km
Apogee alt
35,787.9 km
Semi-major
42,164.6 km
B*
0.0000e+0
RAAN
245.2659°
Arg perigee
116.6586°
Mean anomaly
358.0865°
Rev number
797

§ Raw data

EXPRESS AMU-31 50002U 21123B   26262.71770250 -.00000326  00000+0  00000+0 0  99932 50002   0.0306 245.2659 0000337 116.6586 358.0865  1.00272209  7978

JSON: /api/v1/satellites/50002 · /tle

For live sub-satellite position, see the globe view (requires WebGL).

§ Visibility from observer

Set your observer location to see the next 7 days of passes ≥ 10°. The values pass through the URL so the page stays shareable.

No JS? Fill the form by hand. The geolocation button needs JavaScript.